Wind_Speed
16 15 13 12 14 15 14 13 13 14 14 16 16 13 9 8 8 9 10 10 11 12 11 11 12 12 11 10 9 9 9 10 11 12 13 10 8 8 6 6 7 8 8 9 9 9 10 10 10 9 9 9 8 8 8 7 7 6 6 7 7 7 7 7 8 10 12 15 16 16 17 18 19 19
16 15 14 13 14 15 14 14 14 14 14 13 12 10 9 8 7 7 8 8 9 9 9 9 10 10 9 7 7 6 6 6 7 7 8 7 6 4 2 1 3 4 5 5 6 6 7 7 7 7 7 6 6 6 6 7 7 7 8 8 8 8 7 6 6 6 9 11 12 14 16 18 18 19
15 14 14 14 14 13 13 12 12 11 10 9 7 7 8 9 8 6 6 7 7 7 7 7 7 7 7 5 5 5 5 5 5 3 2 2 3 2 2 3 2 3 2 1 1 1 2 3 4 5 6 6 5 5 6 8 9 9 10 11 12 12 12 10 8 7 11 14 13 12 13 16 18 18
13 13 13 13 13 12 11 10 8 7 6 4 3 3 4 5 6 6 6 6 7 7 7 6 6 5 4 3 3 3 3 3 3 2 2 2 2 3 4 5 6 7 7 4 4 5 5 4 4 2 1 3 5 7 9 11 11 10 10 11 14 16 17 17 15 12 15 19 18 15 14 15 17 19
13 12 12 12 12 12 10 8 6 6 6 5 4 2 1 1 1 2 2 3 4 5 6 6 6 4 4 4 3 4 4 4 4 4 4 5 5 6 6 7 8 8 8 8 8 9 9 9 9 8 6 5 6 9 12 14 13 12 11 10 13 15 16 18 18 16 16 19 20 18 18 18 18 21
13 11 11 12 13 12 12 11 10 9 9 9 8 7 5 4 4 5 4 4 4 4 5 6 6 5 5 6 6 6 7 7 6 5 4 6 8 8 8 9 10 10 10 9 9 9 9 12 13 12 10 9 10 13 14 14 14 14 13 12 12 13 13 14 14 14 14 17 19 18 18 19 19 21
13 11 10 11 13 13 14 14 14 13 12 12 11 11 10 9 9 9 9 9 9 9 9 9 8 8 8 8 8 8 9 9 9 8 6 6 11 12 11 13 14 14 12 11 10 10 9 11 14 13 10 10 11 14 17 17 17 16 15 15 14 14 14 15 14 14 13 14 16 17 18 19 19 20
14 13 12 12 12 13 14 15 15 15 15 14 14 13 13 14 14 14 14 13 13 14 14 15 14 13 12 12 11 11 11 11 12 12 11 11 14 14 15 17 17 17 16 14 14 13 13 13 15 14 13 13 15 16 16 17 19 19 18 17 16 15 16 17 16 15 15 16 18 19 21 23 22 21
16 15 15 14 14 15 15 16 17 17 17 17 17 17 17 17 18 18 18 18 18 18 18 19 19 18 17 16 15 14 14 14 14 14 15 16 17 17 17 18 19 19 19 18 17 16 16 16 16 16 15 18 20 20 20 20 20 21 19 17 17 17 18 20 19 18 19 21 22 23 24 26 27 27
18 18 18 17 17 17 18 18 18 18 19 19 19 20 20 21 21 21 21 22 22 22 22 22 22 22 21 19 18 17 17 17 17 17 16 18 19 18 18 19 19 20 20 20 20 20 20 20 20 20 20 22 24 24 25 25 24 23 22 21 22 23 22 23 24 24 25 26 27 28 29 29 30 32
21 21 21 21 21 21 21 20 20 20 20 21 21 22 22 22 23 23 22 23 23 23 23 22 22 22 22 21 20 19 19 19 20 20 19 20 20 20 19 19 20 20 20 21 21 22 22 23 23 24 23 25 26 26 27 28 27 26 26 27 30 31 29 28 28 29 29 30 31 32 33 33 35 36
24 25 25 25 25 24 24 23 23 23 23 23 23 23 23 23 23 22 22 22 22 22 22 21 22 22 21 20 20 19 19 19 20 22 23 23 23 22 22 22 22 23 24 24 24 24 24 24 24 24 25 26 26 26 27 28 29 29 29 30 31 33 33 33 33 33 32 32 33 34 36 37 39 40
28 28 28 28 28 27 26 25 25 25 25 25 24 24 23 22 22 22 21 21 21 21 21 21 21 21 20 19 19 18 18 19 20 22 23 25 26 27 27 27 27 28 29 29 29 29 28 28 27 26 26 27 28 28 28 29 30 30 30 30 31 33 34 35 36 36 36 35 35 36 38 39 40 41
30 31 31 31 30 30 29 28 27 27 26 26 25 24 24 23 23 22 22 22 22 22 22 22 22 21 21 21 20 19 20 20 21 23 24 25 25 27 29 30 31 32 32 32 32 32 31 31 30 29 29 29 30 30 31 31 31 31 31 31 32 33 35 36 38 38 38 38 39 40 41 41 42 44
33 33 33 32 32 31 30 30 29 29 28 28 27 26 25 24 24 24 24 24 24 24 24 24 24 24 24 24 23 23 23 23 23 24 26 26 26 26 27 28 30 31 32 33 34 34 34 33 33 34 33 33 33 33 34 33 33 33 34 34 35 35 35 36 39 41 42 42 44 46 46 47 48 49
35 35 34 34 34 33 32 31 31 31 31 30 29 28 26 25 25 26 26 26 26 27 26 26 26 27 27 26 26 25 25 25 25 26 27 28 28 28 28 28 29 30 30 31 33 34 35 35 36 37 37 36 37 37 37 37 36 36 36 37 37 37 37 37 39 41 43 45 47 49 50 51 52 52
37 37 36 36 36 36 35 35 34 34 33 32 32 30 28 27 28 28 28 28 28 29 29 28 28 28 28 28 28 27 27 27 28 28 29 29 29 30 30 31 31 32 32 32 33 34 36 36 37 39 39 39 39 40 40 40 39 39 39 39 40 40 41 41 41 43 45 47 49 51 53 54 54 54
38 38 38 38 38 38 37 37 37 36 35 34 34 32 31 30 31 31 31 31 31 31 31 31 31 30 29 29 29 29 30 30 30 30 31 31 31 32 32 33 33 34 34 35 35 36 37 38 39 40 40 41 41 42 42 42 43 43 43 43 43 44 44 45 45 46 47 49 51 53 54 56 56 57
37 38 38 39 39 39 39 39 38 38 38 37 36 35 34 34 34 33 33 33 33 34 34 34 33 31 31 31 32 32 32 32 32 32 32 32 33 34 35 35 36 36 37 37 38 38 39 40 41 42 42 43 44 44 44 45 45 46 46 45 46 46 47 47 48 49 51 52 53 54 56 57 59 60
38 38 39 39 40 40 41 41 40 40 40 39 38 37 37 37 36 35 35 36 35 35 35 35 35 34 34 34 34 33 32 31 32 32 33 34 35 36 37 38 38 39 39 40 40 40 41 42 42 43 44 45 45 46 46 47 47 47 48 48 49 49 50 51 52 54 55 55 56 57 59 62 64 65
38 38 39 40 41 42 42 43 42 42 42 41 40 39 39 38 38 37 37 36 36 36 37 37 37 37 37 36 35 33 31 32 33 34 35 36 37 37 38 39 39 40 41 42 43 44 44 44 44 45 46 47 47 48 48 49 49 50 51 51 52 53 54 55 57 58 59 59 60 62 64 67 69 69
37 38 40 42 44 44 44 45 44 43 43 43 42 41 40 40 40 39 38 37 37 38 39 39 39 40 40 38 36 35 35 36 38 39 39 40 41 41 42 42 42 43 45 46 48 48 47 46 46 46 47 48 49 49 50 51 51 52 53 55 56 58 59 60 62 62 63 64 65 66 68 70 72 72
42 44 45 47 48 47 46 47 46 44 44 44 43 42 42 42 42 41 39 39 39 39 40 40 41 42 43 42 41 40 39 40 42 43 44 44 45 45 46 46 47 49 50 51 51 50 49 48 48 49 50 50 51 51 52 53 54 56 57 60 62 64 65 65 65 66 66 67 68 69 71 73 74 75
47 48 49 52 53 51 49 49 48 46 46 45 44 44 45 44 43 42 41 41 40 40 41 42 42 42 44 45 45 44 44 44 45 45 46 46 46 47 49 50 51 52 53 53 53 52 52 53 54 54 55 56 56 57 58 59 60 61 63 65 67 68 69 69 69 69 69 70 70 72 74 76 78 81
52 52 51 53 55 54 52 51 50 49 48 47 46 48 49 48 46 45 44 43 43 43 43 43 43 43 45 46 46 47 48 49 48 46 45 46 47 48 50 52 53 53 54 55 55 56 56 57 59 59 60 61 62 63 65 66 67 68 69 70 71 72 73 74 74 74 73 73 74 76 79 82 84 85
57 59 59 59 59 59 56 54 52 52 51 49 49 50 51 50 48 46 45 45 45 45 45 45 45 46 48 48 48 49 50 50 48 46 47 49 50 52 54 55 55 55 56 58 58 59 60 61 61 62 63 64 66 67 69 71 72 73 74 75 76 77 78 79 79 79 79 79 80 84 86 88 88 89
62 63 65 66 66 65 64 61 58 56 55 54 53 52 52 51 49 47 47 46 46 46 47 48 49 50 51 52 52 52 52 52 51 49 49 51 53 55 56 57 58 59 60 61 62 63 64 64 64 64 64 65 67 69 71 73 75 77 78 79 80 82 82 83 83 84 85 86 87 89 90 90 89 89
66 66 68 69 69 70 69 68 67 65 62 60 58 56 55 54 53 51 48 48 48 48 49 50 52 54 54 55 55 54 55 55 54 52 52 54 56 57 57 58 61 63 64 64 65 65 65 66 66 67 68 69 71 73 75 77 78 80 81 82 83 84 85 85 86 87 88 89 89 89 89 89 90 90
70 70 70 71 72 72 72 72 72 71 70 67 65 62 60 59 58 56 52 50 51 52 51 53 55 57 56 57 58 59 58 57 55 55 56 58 60 61 63 64 65 66 66 67 67 67 67 68 70 71 73 75 76 77 79 80 81 81 82 83 84 85 86 86 88 88 89 89 89 88 88 88 89 88
72 72 72 73 73 74 74 75 75 75 75 73 71 68 66 64 63 62 59 56 55 55 55 56 58 60 61 62 63 63 63 62 61 59 60 62 64 66 68 69 69 69 70 71 72 72 71 71 72 73 75 76 77 79 80 81 81 81 82 84 86 87 88 88 88 88 88 87 87 87 87 87 87 88
72 72 72 73 74 74 75 76 76 77 77 77 75 73 71 69 68 67 65 63 62 60 59 61 64 66 68 69 69 68 69 70 69 66 64 64 65 66 67 68 70 73 75 79 81 81 78 76 75 75 76 76 77 78 79 79 80 81 83 84 85 85 85 85 85 84 84 84 84 84 85 86 88 89
70 70 70 71 71 72 73 74 75 76 77 77 77 76 74 73 72 71 70 69 68 66 66 68 70 71 72 72 73 74 74 75 75 74 72 71 70 70 70 72 77 81 84 86 87 86 84 83 81 80 78 78 78 77 77 76 77 77 78 78 79 79 80 80 81 81 82 83 84 86 87 89 91 92
66 67 67 68 68 69 70 71 72 73 75 76 76 76 76 75 74 74 73 73 72 72 71 72 74 76 76 76 76 77 78 77 78 78 78 78 79 79 78 78 81 84 85 85 86 86 86 85 84 83 83 83 81 79 78 77 78 79 80 81 82 83 84 84 85 86 87 88 89 90 91 93 94 95
65 65 66 66 67 67 68 68 69 71 72 73 74 75 75 76 76 76 75 75 75 75 75 75 77 78 79 80 80 80 79 78 78 78 77 77 78 78 78 79 81 83 84 85 86 86 85 85 86 86 86 85 84 83 82 83 84 86 87 87 88 88 89 89 89 90 91 92 92 93 93 94 95 97
64 65 65 66 67 68 68 69 70 70 71 72 73 73 74 75 76 77 77 77 77 77 77 77 78 79 80 81 82 82 82 81 81 80 79 78 78 78 78 78 79 81 84 86 85 84 84 85 86 86 86 87 87 88 88 89 89 90 90 90 90 90 91 93 94 95 96 96 96 96 97 99 101 104
63 64 65 66 67 69 70 70 71 72 72 73 73 74 74 75 76 77 77 78 78 78 79 79 79 80 80 81 82 83 84 84 84 84 83 81 81 81 81 81 81 82 84 84 84 84 85 85 86 86 87 89 90 90 90 90 89 89 89 89 90 92 94 96 97 98 99 99 100 102 104 107 110 113
62 63 64 65 67 68 69 70 71 72 72 73 73 74 74 75 76 76 77 77 78 78 79 79 80 80 81 82 83 84 84 85 85 85 84 82 81 81 82 82 83 84 84 84 84 84 85 86 86 87 88 89 89 89 88 88 88 89 90 91 93 95 97 98 99 101 103 106 109 112 115 117 120 122
60 60 61 62 64 65 66 67 68 69 70 71 71 72 73 74 75 75 76 76 76 77 77 78 79 80 81 82 83 83 84 85 86 86 86 85 84 85 85 85 85 85 85 85 85 85 86 87 88 89 89 90 90 90 91 91 92 93 94 95 97 99 101 103 106 110 114 117 120 123 124 126 126 127
54 55 55 57 58 59 61 62 63 65 66 67 68 69 70 71 72 72 73 74 74 75 75 76 77 78 80 81 82 83 84 85 86 87 88 88 88 89 90 91 91 90 89 89 89 89 89 90 92 93 94 95 96 97 99 99 100 101 102 104 106 109 112 116 119 121 123 125 126 126 127 127 127 127
47 48 49 50 51 52 54 55 57 59 61 62 64 65 66 67 68 69 70 71 72 73 73 74 75 76 77 78 80 81 83 84 86 88 89 90 91 92 94 96 97 98 99 99 99 99 99 99 99 100 101 102 103 104 106 108 109 111 114 116 118 120 122 123 124 124 124 125 124 124 124 125 125 126
42 42 42 43 44 44 46 47 49 51 53 55 57 59 61 63 64 66 67 68 69 70 71 72 73 74 74 75 77 78 80 82 84 86 87 89 91 93 94 96 99 101 103 104 105 106 106 106 106 105 106 106 107 109 111 112 114 116 117 119 120 121 122 122 122 122 122 122 122 123 123 124 124 124
37 37 38 38 38 39 39 40 41 42 44 45 47 49 52 54 56 59 61 63 64 66 67 69 70 71 72 73 74 75 77 78 80 82 84 86 88 90 92 94 96 98 100 102 104 105 105 106 106 107 107 108 110 111 113 114 115 116 118 119 120 120 121 121 121 121 121 121 121 121 121 121 121 120
35 35 36 36 36 36 37 37 37 38 38 39 40 41 42 44 45 47 49 52 54 57 59 62 64 66 68 70 71 73 74 76 77 79 81 82 84 86 87 89 91 93 95 97 99 101 102 104 105 107 108 110 111 112 113 115 116 116 117 117 117 117 117 117 117 117 116 117 117 117 117 116 116 115
34 35 35 35 35 36 36 36 36 37 37 37 38 38 39 39 40 41 41 42 44 45 47 49 51 54 56 58 61 63 66 68 71 73 75 77 80 82 84 85 87 89 91 93 95 98 100 103 105 107 108 109 110 110 111 111 111 111 111 111 110 110 111 111 112 112 112 113 114 113 113 113 113 113
35 35 35 35 35 36 36 36 37 37 37 38 38 38 39 39 39 40 40 40 41 41 42 42 43 44 46 48 49 52 54 56 59 61 63 66 68 70 73 75 77 80 82 84 87 89 92 95 97 99 101 102 103 104 104 104 104 104 104 104 105 105 106 107 108 109 109 110 111 112 111 111 111 111
Wind_Direction
159 158 153 142 131 126 124 120 114 112 111 107 105 112 120 111 102 97 93 88 83 83 84 85 85 85 83 83 85 83 82 87 91 90 90 93 92 86 90 100 106 111 114 115 117 116 114 109 99 91 85 83 84 81 73 63 52 40 26 19 16 17 25 32 33 32 29 25 23 21 17 15 14 12
163 161 158 153 144 137 131 125 124 124 122 118 114 112 115 119 115 98 88 83 80 78 76 76 80 81 78 75 76 76 72 77 87 88 88 100 113 99 71 84 117 120 121 121 122 121 120 116 107 91 76 67 68 69 57 41 27 12 358 345 338 334 333 339 348 5 15 12 11 11 6 2 3 4
170 168 165 164 160 154 147 141 139 139 138 133 114 96 100 113 114 97 79 74 71 67 63 63 67 73 76 71 64 61 60 64 73 79 78 113 153 173 302 303 280 259 224 148 109 131 149 139 122 97 70 47 33 28 16 8 4 360 351 340 331 322 316 310 304 325 357 354 345 349 354 350 350 351
182 179 177 177 175 170 165 160 157 159 164 166 140 107 93 96 100 94 81 72 64 58 54 50 49 51 56 58 49 34 29 30 32 23 358 334 285 274 290 294 287 275 259 260 291 289 272 260 246 229 76 29 2 338 331 333 337 340 341 338 334 330 328 322 314 326 350 344 329 324 331 338 340 338
190 189 190 190 189 187 187 192 202 211 220 230 230 218 204 102 74 49 58 63 50 40 35 32 31 21 6 357 344 330 325 323 327 323 331 337 321 307 303 294 294 295 281 273 273 271 277 284 279 273 277 302 317 312 310 314 319 321 321 323 329 331 333 331 327 331 338 334 329 329 330 333 334 330
190 193 197 200 202 205 211 221 231 239 242 246 252 255 257 262 278 294 303 305 314 331 343 353 356 347 336 330 322 315 309 306 304 304 320 323 304 297 296 289 294 306 305 298 285 280 295 304 300 297 299 303 305 301 299 302 308 313 311 310 314 316 317 317 315 314 319 326 329 330 327 324 323 322
196 201 206 209 212 217 225 233 240 245 249 253 258 262 266 270 277 284 289 289 288 292 299 308 314 313 310 308 304 301 298 295 292 289 288 284 278 278 280 279 284 292 296 297 290 285 290 294 293 296 301 296 293 296 298 301 306 309 306 302 303 308 307 300 292 293 302 312 312 308 306 305 307 312
211 216 222 225 226 228 234 240 245 250 254 258 263 266 271 275 278 283 285 285 284 285 287 292 296 296 295 295 293 291 288 285 282 280 277 274 274 275 276 277 279 283 285 287 284 281 280 278 278 285 291 287 283 284 288 294 299 298 294 291 292 297 298 293 288 286 288 289 291 292 296 300 303 304
226 230 234 237 237 239 242 246 249 253 257 262 266 270 273 276 279 282 284 285 286 285 285 288 290 290 289 288 287 284 283 282 280 279 278 278 277 277 276 276 277 278 280 281 280 279 279 279 279 281 278 275 276 278 278 281 284 285 285 285 282 281 285 286 284 281 282 285 289 291 296 303 303 299
234 237 240 243 246 247 249 251 253 256 259 262 266 270 273 276 279 281 284 285 285 285 285 285 286 287 286 285 283 280 276 276 276 276 277 277 275 274 274 274 275 276 276 276 276 275 275 275 277 278 274 272 275 279 280 281 282 281 281 281 279 277 278 279 279 278 280 285 288 291 294 295 293 292
242 246 249 251 253 254 255 256 257 258 260 262 264 268 272 275 277 279 281 283 284 286 286 287 286 286 285 285 283 280 275 272 271 271 271 272 272 271 270 271 273 275 276 278 279 279 279 277 275 274 273 273 275 277 279 282 284 282 281 280 278 278 277 276 277 279 281 282 283 285 287 287 286 288
250 253 255 257 258 259 260 262 262 262 263 264 266 268 270 272 274 276 278 280 283 285 287 288 288 286 285 284 283 281 279 276 273 270 268 267 268 267 266 267 270 274 277 280 281 282 282 281 278 275 273 272 274 276 278 281 282 282 281 279 277 276 274 272 274 277 280 280 281 283 284 285 286 287
256 257 260 261 263 264 265 266 267 267 267 268 268 268 268 270 272 274 276 279 281 284 286 287 287 285 284 283 281 280 280 280 279 276 273 269 267 265 264 265 268 272 275 277 279 281 281 280 279 277 274 272 273 275 277 279 280 280 279 278 277 275 273 271 272 276 279 279 279 281 283 283 285 286
260 261 263 265 267 268 270 270 269 269 268 268 267 267 268 269 272 275 278 280 282 283 284 287 286 284 283 282 281 279 280 280 281 280 278 276 273 270 268 266 267 270 272 274 276 277 278 278 278 276 275 274 274 275 278 280 279 278 277 277 278 278 277 276 275 276 277 275 276 279 281 283 284 286
261 263 265 266 267 268 269 269 268 267 266 265 265 266 268 270 274 277 279 281 282 283 285 286 286 285 285 285 283 283 282 281 280 279 279 279 278 277 275 273 272 271 271 272 273 274 274 276 277 277 278 279 279 280 281 282 280 278 277 278 279 280 280 279 278 277 277 276 278 280 282 283 284 285
261 262 263 264 265 265 265 265 264 264 264 264 264 264 267 271 274 276 278 280 282 283 285 287 287 287 286 286 286 285 285 283 282 280 278 277 278 278 278 277 276 276 274 273 273 273 273 274 275 277 278 280 281 281 282 283 281 279 278 277 278 279 280 280 278 277 277 278 279 281 282 283 284 285
260 261 262 263 263 264 263 263 262 263 263 264 264 265 266 269 271 274 276 279 281 283 284 285 286 286 285 285 285 285 285 284 282 280 278 277 277 276 276 276 276 276 275 275 274 274 275 276 275 276 278 279 279 280 281 282 282 281 279 279 279 279 280 280 279 279 279 279 280 282 283 284 284 284
260 261 262 263 263 263 263 263 263 264 264 263 264 266 267 267 270 272 276 278 280 281 281 281 282 283 282 282 283 284 284 284 282 280 278 277 276 275 275 275 275 276 276 275 275 275 276 277 277 278 278 279 279 280 280 281 281 281 280 280 280 280 280 280 280 280 279 280 281 282 283 284 284 284
262 263 263 264 265 265 264 264 263 263 263 263 264 266 267 268 270 273 277 280 282 282 281 279 278 277 277 278 282 285 286 284 282 281 280 278 277 277 276 276 276 276 276 276 276 276 277 278 279 279 280 280 280 280 280 280 280 281 281 281 281 281 281 280 280 279 280 282 283 284 285 285 285 284
262 263 264 265 266 266 266 265 264 263 263 263 264 265 267 269 271 274 277 279 281 281 280 276 273 273 275 278 283 287 287 284 283 282 282 281 279 278 278 278 277 277 277 277 278 280 280 281 282 282 282 282 282 281 281 280 281 281 281 282 282 282 281 281 280 281 283 285 286 286 287 288 287 286
267 268 268 268 267 266 266 265 264 263 263 263 264 265 267 270 273 274 276 277 278 278 277 275 273 274 278 283 287 290 287 282 281 282 282 281 279 279 279 279 279 279 279 280 281 282 283 283 283 283 282 282 282 280 280 280 280 281 281 283 284 284 284 284 284 286 287 287 288 289 290 291 290 288
267 266 266 267 266 265 265 265 264 264 263 263 264 266 268 269 271 272 274 275 276 276 276 276 274 274 277 282 286 288 287 283 281 281 280 279 278 278 278 279 279 280 280 280 282 282 282 281 281 281 281 281 280 280 279 280 280 281 282 284 285 286 286 287 288 288 288 288 289 290 291 292 292 290
257 257 257 260 262 261 261 263 264 265 264 263 264 265 266 267 268 270 272 272 273 274 274 274 274 275 276 277 278 282 285 284 283 281 279 278 278 278 279 279 280 281 281 281 281 281 281 281 281 281 281 281 281 280 280 280 281 282 283 284 286 287 287 287 288 288 288 288 289 290 290 291 291 291
256 256 254 255 258 259 259 261 263 264 263 263 263 263 263 265 268 269 270 271 271 271 271 273 274 275 275 275 276 278 281 282 282 278 276 275 276 277 279 280 280 280 280 280 280 281 281 282 282 283 283 283 282 282 281 281 282 283 283 284 285 286 287 287 288 288 288 288 289 290 291 291 292 293
257 258 257 256 258 260 261 261 261 262 263 263 263 263 263 267 269 269 269 270 270 269 269 271 272 272 273 275 277 278 280 281 280 275 271 270 271 273 275 277 277 276 276 277 279 280 281 283 284 284 284 284 284 284 285 285 286 286 286 287 287 288 288 289 289 289 288 288 289 290 292 294 295 296
255 256 258 259 260 261 262 261 261 263 264 264 263 263 264 267 267 266 266 266 267 267 267 268 269 270 272 273 274 276 278 279 277 274 272 271 270 272 273 273 272 271 272 273 275 277 279 281 282 281 281 281 281 282 283 285 286 287 287 288 288 288 289 289 289 289 288 288 289 291 293 294 295 296
255 255 256 258 259 260 261 260 260 261 263 264 263 264 264 264 264 264 265 266 266 266 267 268 270 272 274 275 276 276 276 276 274 273 274 274 274 274 274 271 268 267 268 270 272 275 278 280 280 280 280 279 278 278 279 281 282 284 285 286 287 287 288 288 289 289 289 289 290 291 292 292 292 292
258 257 257 257 258 259 260 260 260 260 262 262 262 262 262 262 262 263 265 267 266 265 265 268 270 271 273 275 275 274 274 275 274 273 275 276 276 276 275 273 269 269 270 273 275 276 278 279 279 278 278 277 276 276 277 278 280 281 282 284 285 286 286 287 287 288 288 289 289 289 288 287 287 286
259 259 259 259 259 259 260 260 260 261 262 262 262 261 260 260 260 261 262 264 264 264 265 267 269 271 273 273 272 271 271 271 271 272 274 276 276 276 277 277 276 275 276 277 278 278 278 278 278 277 277 277 276 276 277 278 279 280 280 281 282 283 283 284 285 286 286 287 287 287 286 285 284 284
259 258 258 259 259 259 260 260 261 261 261 262 262 262 261 261 260 260 259 259 259 260 262 264 265 267 267 266 266 267 268 269 270 270 271 272 273 274 275 277 277 277 277 278 279 279 279 278 277 278 278 279 279 278 278 278 278 278 279 280 281 282 283 283 284 284 285 285 285 285 284 283 282 283
258 258 258 258 258 259 259 260 260 260 261 261 262 262 262 262 261 261 260 259 257 256 257 258 259 260 261 263 265 267 268 270 271 270 269 270 271 272 273 275 275 276 276 277 277 277 277 278 278 278 279 280 280 280 280 280 280 281 282 282 283 283 283 283 283 283 283 283 282 282 282 281 281 281
257 257 257 258 258 259 259 259 260 260 260 261 261 261 261 261 261 261 261 260 259 257 255 255 256 258 260 263 265 267 268 269 270 270 269 269 270 271 273 274 274 274 274 274 274 274 276 277 278 279 280 280 280 280 280 280 281 281 281 281 281 281 281 281 281 281 280 280 280 280 280 281 281 282
256 257 257 258 258 259 259 260 260 260 261 261 261 261 261 260 260 260 260 260 259 258 256 256 256 258 259 260 262 264 266 268 269 270 270 270 271 272 272 273 272 271 271 273 275 276 278 279 279 280 281 280 280 279 278 277 277 277 277 278 278 278 279 279 279 280 280 280 281 282 282 283 284 285
258 259 259 259 259 259 260 260 260 261 261 261 261 261 260 260 260 259 259 259 258 258 258 257 256 257 258 259 260 261 263 264 266 268 269 270 271 271 271 272 272 271 272 275 278 279 280 280 281 281 281 281 280 279 278 278 278 278 278 279 279 279 279 280 280 281 282 283 283 284 284 285 285 286
260 260 260 260 260 260 260 260 261 261 261 261 261 261 261 260 260 260 259 258 258 257 257 257 257 257 257 258 259 260 261 261 263 264 266 268 269 269 269 269 270 270 272 275 277 278 279 280 281 281 281 281 282 281 281 280 280 280 281 281 280 280 280 281 282 283 284 284 285 285 285 285 286 287
260 260 260 260 260 260 261 261 261 261 262 262 262 262 261 261 261 260 259 259 258 257 257 257 257 257 258 258 259 259 260 260 261 262 264 265 267 267 267 266 266 266 268 271 274 276 278 279 280 280 281 281 281 281 281 281 280 280 280 280 280 281 282 282 283 283 283 284 284 285 286 287 288 290
261 261 261 261 261 260 260 261 261 261 261 262 262 262 262 261 261 260 260 259 259 258 258 257 257 257 257 258 258 259 260 260 260 261 261 262 264 264 264 264 264 265 267 270 272 275 276 277 278 279 279 280 280 279 279 279 279 279 278 279 279 280 281 281 282 282 283 285 286 288 290 291 292 293
263 263 263 262 262 262 261 261 261 261 261 261 262 262 261 261 261 261 260 260 260 259 259 258 258 258 258 258 258 259 260 260 260 260 260 260 260 261 262 263 264 266 268 270 272 274 275 276 277 278 279 279 279 279 279 279 279 278 278 278 278 279 280 281 283 285 287 289 290 291 292 292 293 293
264 264 264 263 263 263 263 263 262 262 262 262 262 262 262 261 261 261 261 261 261 261 260 260 259 259 259 259 259 260 260 261 261 261 261 261 260 260 261 262 264 266 268 270 271 272 273 274 275 276 277 278 278 278 278 278 278 278 278 278 280 281 283 285 287 288 289 289 290 291 291 292 292 293
267 267 267 266 266 265 265 264 264 264 263 263 263 263 263 263 262 262 262 261 261 261 261 261 261 261 260 260 260 260 261 261 262 262 262 262 262 262 262 262 263 265 267 268 270 271 272 274 275 276 276 277 277 277 278 278 278 279 280 280 282 283 284 285 286 287 288 289 290 291 292 293 293 294
269 270 270 270 270 270 269 269 268 267 266 266 266 265 265 265 264 264 263 263 263 263 263 263 263 263 262 262 262 262 262 262 263 263 263 263 263 264 264 264 264 265 266 268 269 271 272 274 275 276 277 277 278 278 278 279 279 280 280 281 282 283 284 285 286 288 289 290 291 292 292 293 293 294
269 269 270 271 271 271 271 272 272 271 271 271 270 269 269 268 268 267 266 266 265 265 265 264 264 264 264 264 264 264 264 264 264 265 265 265 266 266 266 266 267 267 268 269 270 271 272 273 274 275 276 277 277 277 278 278 279 280 281 282 283 284 285 286 288 289 290 290 291 291 292 293 293 294
269 270 271 271 272 272 272 273 273 273 273 274 273 273 273 272 272 271 271 270 269 268 267 267 267 266 266 267 266 266 266 267 267 267 267 267 268 268 268 269 269 270 270 271 271 271 272 273 273 274 275 275 276 277 278 278 280 281 282 283 284 285 286 288 288 289 290 290 291 292 292 293 294 294
272 273 274 275 276 276 277 278 278 278 278 278 278 278 277 277 277 276 276 275 275 274 273 272 272 271 271 271 271 271 270 270 270 270 270 270 271 271 271 271 272 272 272 273 273 273 273 274 274 275 276 277 278 279 280 281 282 283 284 285 286 287 288 289 289 290 290 291 291 292 293 293 294 294
275 276 277 279 280 281 282 282 283 283 283 283 283 283 283 282 282 281 281 280 280 280 279 279 278 278 278 277 277 277 277 276 276 276 276 276 276 276 276 276 276 276 276 276 276 277 277 277 277 278 279 280 281 281 282 283 284 285 286 287 287 288 288 289 289 290 291 292 292 293 293 293 294 294
Height
10991 10991 10991 10990 10990 10990 10990 10990 10990 10990 10990 10988 10987 10990 10993 10994 10993 10993 10991 10990 10989 10988 10987 10986 10986 10985 10985 10985 10985 10985 10986 10986 10987 10987 10986 10985 10984 10984 10985 10985 10983 10982 10981 10979 10979 10978 10977 10977 10976 10976 10975 10975 10975 10975 10975 10975 10975 10974 10974 10973 10973 10972 10971 10971 10970 10969 10969 10969 10968 10968 10967 10966 10965 10964
10991 10992 10992 10991 10991 10991 10991 10991 10991 10991 10991 10990 10990 10992 10993 10993 10993 10992 10991 10991 10989 10989 10988 10988 10987 10987 10986 10987 10987 10987 10987 10987 10988 10988 10987 10986 10985 10985 10986 10985 10984 10983 10982 10980 10980 10979 10978 10977 10977 10976 10976 10976 10975 10975 10975 10975 10975 10974 10974 10973 10973 10972 10971 10970 10970 10969 10968 10968 10968 10967 10966 10966 10965 10964
10992 10992 10992 10992 10992 10992 10992 10992 10992 10992 10992 10991 10991 10992 10993 10993 10993 10992 10991 10991 10990 10989 10989 10989 10988 10987 10987 10987 10987 10987 10988 10988 10988 10988 10987 10987 10987 10986 10986 10985 10984 10983 10982 10981 10980 10980 10979 10978 10977 10976 10976 10976 10976 10976 10975 10975 10974 10974 10974 10973 10972 10972 10971 10970 10969 10968 10968 10968 10967 10966 10965 10965 10965 10964
10991 10992 10992 10992 10992 10992 10993 10993 10993 10993 10992 10992 10992 10992 10992 10992 10992 10992 10991 10990 10990 10989 10989 10989 10989 10988 10988 10988 10987 10987 10988 10988 10988 10988 10987 10987 10987 10986 10985 10983 10983 10982 10981 10981 10980 10979 10978 10978 10977 10976 10975 10975 10976 10976 10975 10975 10974 10974 10973 10973 10972 10971 10970 10969 10968 10968 10968 10967 10966 10965 10965 10964 10964 10963
10991 10991 10992 10992 10992 10993 10993 10993 10993 10993 10992 10992 10992 10992 10992 10992 10992 10991 10991 10990 10990 10989 10988 10988 10988 10988 10988 10988 10987 10987 10987 10987 10987 10987 10987 10987 10986 10985 10984 10982 10981 10981 10981 10980 10980 10979 10978 10977 10977 10976 10975 10975 10975 10975 10975 10974 10974 10973 10973 10973 10972 10971 10970 10969 10969 10968 10968 10967 10966 10965 10965 10964 10964 10963
10991 10991 10991 10991 10992 10992 10992 10992 10992 10992 10992 10992 10992 10992 10991 10991 10991 10991 10990 10990 10989 10989 10988 10988 10988 10988 10988 10987 10987 10987 10986 10986 10986 10986 10986 10985 10983 10983 10983 10982 10981 10980 10980 10979 10978 10977 10977 10977 10976 10976 10976 10975 10975 10975 10974 10973 10973 10973 10972 10972 10971 10971 10970 10969 10969 10968 10968 10967 10966 10965 10965 10964 10963 10963
10990 10990 10990 10991 10991 10991 10991 10991 10991 10991 10991 10991 10991 10991 10991 10990 10990 10990 10990 10989 10989 10988 10988 10987 10988 10988 10987 10986 10986 10986 10985 10985 10984 10984 10985 10983 10981 10981 10981 10981 10980 10979 10978 10978 10977 10976 10976 10976 10976 10975 10975 10975 10975 10974 10973 10972 10972 10971 10971 10970 10970 10969 10969 10968 10967 10967 10966 10966 10965 10964 10963 10963 10962 10961
10989 10989 10989 10989 10989 10990 10990 10990 10990 10990 10990 10990 10989 10989 10989 10989 10989 10988 10988 10988 10988 10987 10987 10986 10986 10986 10986 10985 10985 10984 10984 10983 10982 10982 10982 10981 10980 10979 10979 10978 10978 10977 10976 10976 10976 10975 10974 10974 10974 10974 10974 10973 10973 10973 10972 10972 10971 10970 10969 10969 10968 10968 10967 10967 10966 10965 10964 10963 10963 10962 10961 10960 10960 10959
10988 10988 10988 10988 10988 10988 10988 10988 10988 10988 10988 10988 10988 10988 10988 10987 10987 10987 10986 10986 10986 10985 10985 10984 10984 10983 10983 10983 10983 10982 10981 10981 10980 10980 10979 10978 10977 10978 10977 10976 10975 10974 10974 10974 10973 10973 10973 10972 10972 10972 10972 10971 10970 10970 10970 10969 10969 10969 10968 10967 10966 10966 10965 10965 10964 10963 10962 10961 10960 10959 10959 10958 10957 10957
10985 10986 10986 10986 10986 10986 10986 10986 10986 10986 10986 10986 10986 10986 10986 10986 10985 10985 10984 10984 10983 10983 10982 10982 10982 10981 10981 10980 10980 10980 10979 10978 10977 10977 10977 10976 10975 10975 10975 10974 10973 10972 10971 10971 10971 10971 10970 10970 10970 10970 10969 10969 10968 10967 10967 10966 10966 10966 10966 10965 10964 10963 10962 10961 10960 10960 10959 10958 10957 10956 10956 10956 10955 10954
10983 10983 10984 10984 10984 10984 10984 10984 10984 10984 10984 10984 10984 10984 10984 10984 10983 10983 10983 10982 10981 10980 10980 10979 10979 10978 10978 10978 10977 10977 10976 10976 10975 10974 10973 10972 10972 10972 10972 10971 10970 10969 10969 10969 10968 10968 10968 10967 10967 10967 10967 10966 10965 10965 10964 10963 10963 10963 10963 10963 10961 10959 10959 10958 10956 10956 10956 10955 10955 10953 10953 10952 10951 10950
10980 10980 10981 10981 10981 10981 10982 10982 10982 10982 10982 10982 10982 10982 10982 10981 10981 10981 10980 10980 10979 10978 10977 10977 10976 10975 10975 10975 10975 10974 10973 10973 10972 10971 10970 10969 10969 10969 10969 10969 10968 10967 10966 10966 10965 10965 10965 10964 10964 10963 10963 10963 10962 10962 10961 10960 10960 10960 10960 10959 10957 10956 10955 10955 10954 10953 10952 10952 10951 10950 10949 10948 10947 10946
10977 10977 10978 10978 10979 10979 10979 10979 10979 10979 10979 10979 10979 10979 10979 10979 10978 10978 10978 10977 10977 10976 10975 10975 10974 10973 10973 10972 10972 10971 10971 10970 10969 10968 10966 10966 10965 10965 10965 10965 10965 10963 10963 10962 10961 10961 10961 10961 10960 10960 10959 10959 10958 10958 10957 10957 10956 10956 10955 10955 10954 10953 10952 10951 10950 10949 10949 10948 10948 10947 10945 10944 10943 10941
10974 10974 10975 10975 10976 10976 10976 10977 10976 10976 10976 10976 10976 10976 10976 10976 10976 10975 10975 10975 10974 10974 10973 10972 10972 10971 10970 10969 10969 10969 10968 10967 10966 10964 10963 10962 10962 10962 10962 10961 10961 10960 10959 10958 10957 10957 10956 10956 10956 10956 10955 10955 10954 10954 10953 10953 10952 10952 10951 10950 10950 10949 10948 10947 10946 10945 10945 10944 10943 10942 10941 10940 10939 10937
10970 10971 10971 10972 10972 10973 10973 10973 10973 10973 10972 10973 10973 10973 10973 10973 10973 10973 10972 10972 10971 10970 10970 10969 10969 10968 10967 10966 10966 10965 10965 10964 10963 10961 10959 10958 10958 10958 10957 10957 10957 10956 10955 10955 10954 10953 10952 10952 10952 10951 10951 10951 10950 10949 10949 10948 10948 10947 10946 10945 10945 10944 10943 10942 10941 10941 10940 10939 10938 10937 10936 10934 10933 10931
10967 10967 10968 10968 10969 10969 10969 10969 10969 10969 10969 10969 10969 10970 10970 10970 10970 10969 10969 10968 10967 10967 10966 10966 10965 10964 10963 10962 10962 10961 10961 10960 10959 10958 10956 10955 10954 10954 10953 10953 10952 10952 10951 10951 10950 10948 10948 10948 10948 10946 10946 10946 10945 10945 10944 10943 10943 10942 10941 10940 10939 10939 10938 10937 10936 10936 10934 10933 10932 10931 10929 10928 10926 10925
10963 10963 10964 10965 10965 10966 10966 10965 10965 10965 10965 10965 10965 10966 10967 10966 10966 10965 10964 10964 10963 10963 10962 10962 10961 10960 10959 10958 10958 10957 10957 10956 10955 10954 10952 10951 10950 10949 10949 10948 10947 10947 10946 10946 10946 10944 10943 10943 10943 10942 10941 10941 10940 10939 10939 10938 10937 10936 10935 10934 10934 10933 10932 10931 10931 10930 10928 10927 10926 10924 10923 10921 10919 10918
10959 10960 10961 10961 10961 10962 10962 10962 10961 10961 10961 10961 10961 10961 10962 10961 10961 10960 10960 10960 10960 10959 10958 10957 10956 10955 10955 10954 10953 10953 10952 10952 10951 10950 10948 10947 10946 10945 10944 10944 10943 10942 10942 10941 10941 10940 10939 10938 10938 10938 10937 10936 10935 10934 10934 10933 10932 10931 10930 10929 10928 10927 10926 10925 10924 10923 10921 10920 10918 10917 10915 10914 10912 10911
10956 10957 10957 10957 10957 10958 10958 10958 10958 10957 10957 10957 10957 10957 10957 10956 10956 10956 10956 10955 10955 10954 10953 10953 10951 10950 10950 10949 10949 10948 10947 10947 10946 10945 10944 10943 10942 10941 10940 10939 10938 10937 10936 10936 10935 10935 10934 10933 10933 10932 10932 10931 10930 10930 10929 10927 10925 10924 10923 10922 10921 10920 10919 10918 10916 10915 10913 10912 10911 10909 10908 10907 10905 10903
10952 10953 10953 10953 10953 10953 10953 10952 10953 10953 10952 10952 10952 10952 10951 10951 10951 10951 10951 10950 10949 10949 10948 10947 10946 10945 10945 10944 10944 10943 10942 10941 10940 10939 10939 10938 10937 10936 10935 10934 10933 10932 10931 10930 10929 10929 10928 10928 10927 10926 10925 10925 10924 10924 10922 10921 10919 10918 10917 10916 10914 10913 10912 10911 10909 10907 10906 10905 10903 10902 10900 10899 10897 10896
10948 10948 10948 10948 10947 10947 10946 10945 10946 10947 10947 10947 10947 10946 10946 10946 10945 10945 10945 10944 10944 10943 10942 10941 10940 10940 10940 10939 10939 10938 10937 10936 10935 10934 10933 10932 10931 10930 10929 10928 10927 10926 10925 10924 10923 10922 10922 10921 10920 10920 10919 10918 10917 10917 10915 10914 10913 10912 10910 10909 10908 10906 10905 10903 10902 10900 10899 10897 10896 10894 10892 10891 10889 10887
10943 10942 10942 10941 10940 10940 10939 10938 10939 10941 10941 10941 10941 10941 10941 10941 10939 10939 10939 10939 10938 10937 10936 10935 10935 10935 10935 10935 10934 10933 10932 10931 10930 10928 10927 10926 10924 10924 10923 10922 10921 10920 10919 10918 10916 10916 10915 10914 10914 10913 10912 10911 10911 10910 10909 10907 10906 10905 10903 10902 10900 10899 10897 10896 10894 10893 10891 10889 10887 10885 10883 10882 10880 10878
10934 10932 10933 10933 10931 10931 10931 10931 10932 10934 10935 10935 10936 10935 10935 10934 10933 10933 10934 10934 10932 10931 10930 10930 10930 10929 10929 10929 10929 10928 10927 10926 10924 10923 10921 10920 10918 10917 10916 10916 10915 10913 10912 10911 10910 10909 10908 10908 10907 10906 10905 10904 10903 10902 10901 10900 10898 10897 10896 10894 10892 10891 10889 10887 10886 10884 10882 10880 10878 10876 10874 10872 10870 10868
10925 10923 10924 10923 10921 10922 10924 10925 10925 10927 10928 10929 10930 10929 10928 10927 10928 10929 10928 10928 10927 10926 10925 10925 10924 10923 10923 10923 10923 10922 10922 10921 10919 10918 10916 10914 10913 10911 10909 10909 10908 10906 10904 10903 10902 10901 10901 10900 10899 10898 10897 10896 10895 10894 10893 10891 10890 10889 10887 10885 10884 10882 10880 10878 10877 10875 10873 10871 10869 10867 10864 10862 10860 10858
10919 10917 10916 10915 10914 10916 10918 10919 10919 10920 10921 10924 10925 10923 10921 10922 10923 10923 10923 10922 10921 10920 10919 10919 10918 10917 10917 10916 10916 10916 10916 10915 10913 10912 10911 10909 10907 10905 10904 10902 10901 10899 10897 10895 10894 10893 10892 10891 10890 10889 10888 10886 10885 10884 10883 10882 10880 10879 10877 10875 10874 10872 10871 10869 10867 10865 10863 10861 10859 10857 10855 10852 10850 10847
10913 10910 10909 10909 10908 10909 10911 10913 10913 10913 10915 10917 10918 10917 10916 10916 10916 10915 10915 10915 10914 10914 10913 10913 10912 10911 10910 10910 10910 10910 10909 10908 10907 10905 10905 10903 10901 10900 10898 10896 10894 10892 10890 10888 10886 10885 10883 10882 10881 10880 10879 10877 10875 10874 10873 10872 10871 10869 10867 10865 10864 10862 10861 10859 10858 10856 10854 10852 10849 10847 10844 10841 10838 10836
10905 10904 10902 10901 10900 10901 10903 10905 10907 10907 10908 10909 10910 10910 10909 10909 10909 10908 10908 10908 10908 10907 10907 10906 10906 10905 10903 10903 10903 10903 10902 10900 10899 10899 10898 10896 10894 10892 10890 10888 10886 10884 10882 10881 10879 10877 10875 10874 10872 10871 10869 10867 10865 10864 10862 10861 10860 10858 10856 10855 10853 10852 10851 10849 10848 10845 10843 10841 10839 10836 10833 10830 10827 10823
10896 10896 10895 10894 10893 10894 10895 10897 10898 10900 10900 10901 10902 10902 10902 10902 10902 10901 10902 10902 10901 10900 10900 10900 10899 10898 10897 10897 10896 10895 10894 10893 10891 10891 10890 10888 10885 10884 10882 10880 10877 10875 10874 10873 10871 10870 10868 10866 10864 10862 10860 10857 10855 10853 10851 10849 10848 10846 10845 10843 10841 10840 10839 10837 10835 10833 10830 10828 10826 10823 10820 10816 10813 10810
10887 10887 10886 10886 10886 10886 10887 10888 10889 10890 10892 10893 10893 10894 10894 10894 10894 10894 10895 10895 10894 10893 10893 10893 10892 10891 10890 10889 10888 10886 10885 10884 10883 10882 10881 10879 10877 10875 10873 10871 10869 10867 10866 10865 10862 10860 10859 10857 10854 10852 10849 10847 10845 10843 10841 10838 10836 10834 10832 10830 10828 10827 10825 10823 10821 10819 10816 10813 10811 10808 10805 10802 10799 10796
10877 10877 10877 10877 10877 10877 10878 10879 10880 10881 10882 10883 10884 10884 10885 10885 10885 10885 10886 10887 10886 10886 10886 10886 10885 10883 10881 10879 10878 10877 10876 10875 10874 10874 10872 10870 10868 10866 10864 10862 10861 10859 10858 10855 10853 10850 10848 10846 10844 10842 10839 10837 10834 10832 10830 10827 10825 10823 10821 10819 10817 10815 10813 10811 10808 10806 10803 10800 10796 10793 10790 10788 10785 10783
10867 10868 10868 10868 10868 10869 10869 10869 10870 10870 10871 10872 10873 10874 10875 10875 10875 10876 10877 10877 10877 10877 10877 10876 10874 10873 10871 10869 10869 10868 10867 10866 10865 10864 10863 10861 10859 10857 10855 10854 10853 10851 10849 10846 10844 10841 10838 10836 10834 10832 10829 10827 10824 10821 10818 10816 10813 10810 10808 10806 10804 10801 10799 10797 10795 10792 10790 10787 10784 10781 10778 10775 10773 10771
10858 10858 10858 10859 10859 10859 10859 10859 10859 10859 10860 10861 10862 10863 10864 10864 10864 10865 10866 10867 10867 10867 10867 10866 10864 10863 10862 10861 10860 10858 10857 10856 10855 10855 10854 10852 10850 10848 10847 10845 10844 10842 10840 10837 10834 10832 10830 10827 10825 10823 10821 10818 10815 10812 10809 10806 10803 10800 10797 10794 10792 10789 10786 10784 10783 10780 10778 10775 10772 10769 10767 10764 10761 10759
10848 10849 10849 10849 10849 10849 10849 10848 10848 10848 10848 10849 10850 10851 10852 10853 10853 10854 10855 10855 10856 10856 10856 10855 10854 10853 10853 10852 10850 10848 10847 10847 10846 10844 10843 10842 10841 10839 10838 10836 10834 10832 10830 10828 10826 10823 10821 10818 10816 10814 10812 10809 10807 10804 10801 10798 10794 10791 10788 10785 10782 10779 10777 10775 10773 10770 10767 10764 10761 10758 10755 10752 10749 10745
10839 10839 10839 10839 10839 10839 10839 10838 10838 10838 10838 10838 10838 10839 10839 10840 10841 10842 10843 10843 10844 10844 10844 10844 10843 10842 10842 10841 10839 10838 10838 10838 10836 10835 10834 10833 10831 10830 10828 10826 10824 10823 10821 10819 10816 10814 10812 10809 10806 10804 10802 10800 10797 10794 10792 10788 10784 10781 10779 10776 10773 10770 10767 10764 10762 10759 10756 10753 10749 10746 10742 10738 10735 10731
10829 10829 10829 10829 10829 10828 10828 10828 10827 10827 10827 10827 10827 10827 10827 10828 10828 10829 10830 10831 10831 10832 10832 10832 10831 10831 10831 10829 10829 10828 10828 10827 10826 10825 10824 10823 10822 10820 10819 10817 10815 10813 10811 10809 10806 10804 10802 10799 10796 10794 10791 10789 10787 10784 10781 10778 10774 10771 10768 10765 10762 10759 10756 10753 10750 10747 10743 10740 10736 10732 10728 10724 10720 10716
10819 10819 10819 10818 10818 10818 10817 10817 10817 10816 10816 10816 10816 10816 10816 10816 10816 10817 10818 10818 10818 10819 10819 10819 10819 10819 10819 10818 10818 10817 10816 10816 10815 10815 10814 10813 10812 10810 10809 10807 10805 10803 10801 10799 10796 10794 10792 10789 10786 10784 10781 10779 10776 10773 10770 10767 10763 10760 10756 10753 10749 10746 10743 10740 10737 10733 10730 10726 10722 10718 10714 10709 10705 10700
10809 10809 10809 10808 10808 10808 10807 10807 10806 10806 10806 10806 10805 10805 10805 10805 10805 10805 10806 10806 10806 10807 10807 10807 10807 10807 10807 10806 10806 10805 10805 10804 10804 10803 10803 10802 10801 10800 10798 10796 10794 10792 10790 10788 10786 10784 10781 10779 10776 10774 10771 10768 10766 10762 10759 10756 10752 10749 10745 10742 10738 10734 10731 10727 10723 10719 10716 10711 10707 10702 10698 10693 10688 10683
10800 10799 10799 10799 10798 10797 10797 10797 10796 10796 10796 10795 10795 10795 10794 10794 10794 10794 10794 10795 10795 10795 10796 10796 10796 10795 10795 10795 10794 10794 10793 10793 10792 10792 10791 10791 10790 10789 10787 10785 10783 10781 10779 10777 10775 10773 10771 10768 10766 10763 10761 10758 10755 10752 10748 10745 10741 10738 10734 10731 10726 10722 10718 10714 10709 10705 10700 10695 10690 10686 10681 10677 10672 10668
10791 10791 10790 10789 10789 10788 10788 10787 10787 10786 10786 10785 10785 10784 10784 10784 10784 10784 10784 10784 10784 10784 10784 10784 10784 10784 10784 10783 10782 10782 10781 10780 10780 10779 10779 10778 10777 10776 10775 10773 10771 10768 10766 10765 10763 10761 10759 10756 10754 10752 10749 10747 10744 10740 10737 10734 10730 10725 10721 10717 10713 10709 10704 10699 10694 10689 10684 10680 10675 10670 10666 10661 10657 10653
10783 10783 10782 10781 10781 10780 10779 10778 10778 10777 10776 10775 10775 10774 10774 10774 10774 10774 10774 10774 10774 10773 10773 10773 10773 10773 10773 10772 10771 10770 10769 10768 10767 10766 10766 10765 10765 10764 10763 10761 10759 10756 10754 10752 10750 10748 10745 10743 10741 10739 10736 10733 10730 10727 10724 10720 10716 10711 10707 10703 10698 10694 10690 10684 10680 10675 10670 10665 10660 10655 10650 10646 10641 10637
10776 10776 10775 10774 10773 10772 10771 10770 10769 10768 10767 10767 10766 10765 10765 10764 10764 10764 10764 10764 10764 10763 10763 10763 10763 10762 10762 10761 10761 10760 10758 10757 10756 10754 10753 10753 10752 10751 10750 10749 10747 10745 10742 10740 10738 10736 10733 10730 10728 10725 10722 10719 10716 10713 10710 10706 10701 10697 10693 10689 10685 10680 10676 10671 10666 10661 10656 10651 10646 10641 10636 10631 10627 10623
10770 10770 10769 10768 10767 10766 10765 10763 10762 10761 10760 10759 10758 10757 10756 10756 10755 10754 10754 10754 10754 10754 10753 10753 10752 10752 10752 10751 10750 10749 10748 10747 10745 10743 10742 10741 10740 10739 10738 10736 10734 10732 10730 10728 10726 10724 10721 10718 10716 10713 10710 10707 10703 10700 10696 10692 10688 10683 10679 10674 10670 10665 10661 10656 10651 10647 10642 10637 10632 10627 10623 10618 10614 10609
10764 10764 10763 10762 10761 10760 10759 10757 10756 10755 10754 10753 10752 10751 10750 10748 10747 10746 10746 10745 10744 10744 10744 10743 10743 10742 10741 10741 10740 10739 10738 10736 10735 10733 10731 10730 10728 10727 10725 10724 10722 10720 10718 10716 10713 10711 10708 10706 10703 10700 10697 10693 10690 10686 10682 10678 10674 10670 10665 10660 10656 10652 10647 10643 10638 10633 10628 10623 10619 10614 10609 10604 10600 10595
10758 10757 10756 10755 10754 10753 10752 10751 10750 10749 10748 10747 10745 10744 10743 10742 10740 10739 10738 10737 10736 10735 10735 10734 10733 10733 10732 10731 10729 10728 10727 10726 10724 10722 10721 10719 10717 10715 10714 10712 10710 10708 10705 10703 10700 10698 10695 10692 10689 10686 10682 10679 10675 10671 10668 10664 10660 10656 10651 10647 10643 10638 10633 10628 10624 10619 10614 10608 10604 10601 10596 10590 10585 10580
10752 10751 10750 10749 10748 10747 10746 10745 10744 10743 10742 10741 10739 10738 10737 10735 10734 10733 10732 10730 10729 10728 10727 10727 10726 10725 10724 10722 10721 10719 10718 10716 10714 10712 10710 10708 10707 10705 10703 10701 10698 10696 10693 10691 10688 10685 10682 10678 10675 10672 10668 10664 10661 10657 10653 10650 10646 10642 10638 10633 10629 10625 10620 10615 10610 10606 10600 10594 10588 10584 10581 10576 10571 10565